Regional Weather Roundup
Issued by NWS

Home | Current Version | Previous Version | Graphics & Text | Print | Product List | Glossary On
Versions: 1 2 3 4 5 6 7 8 9 10 11 12 13 14 15 16 17 18 19 20 21 22 23 24 25 26 27 28 29 30 31 32 33 34 35 36 37 38 39 40 41 42 43 44 45 46 47 48 49 50
000
ASUS43 KLMK 261602
RWRKY
KENTUCKY REGIONAL WEATHER ROUNDUP
NATIONAL WEATHER SERVICE LOUISVILLE KY
1200 PM EDT SUN MAR 26 2017

NOTE "FAIR" INDICATES FEW OR NO CLOUDS BELOW 12,000 FEET
WITH NO SIGNIFICANT WEATHER AND/OR OBSTRUCTIONS TO VISIBILITY.

KYZ001>023-026-027-061>063-070>075-261700-
WESTERN AND SOUTH CENTRAL KENTUCKY

CITY           SKY/WX    TMP DP  RH WIND       PRES   REMARKS
PADUCAH        CLOUDY    59  51  75 W12       29.96S
HENDERSON      CLOUDY    61  54  77 SW8       29.93F
OWENSBORO      CLOUDY    62  57  83 SW17        N/A
HOPKINSVILLE   CLOUDY    62  57  84 S12       29.98S
BOWLING GREEN  CLOUDY    64  56  75 SW15      30.01R
GLASGOW        NOT AVBL
$$

KYZ024-025-028>034-038-045-046-053-261700-
NORTH CENTRAL KENTUCKY

CITY           SKY/WX    TMP DP  RH WIND       PRES   REMARKS
LOUISVILLE/SDF CLOUDY    64  56  75 S9        29.97S
LOUISVILLE/LOU CLOUDY    63  57  81 S7        29.98S
FORT KNOX      CLOUDY    61  58  90 S10       29.97S
$$

KYZ035>037-039>044-047>052-055>060-089>105-261700-
NORTHEAST KENTUCKY

CITY           SKY/WX    TMP DP  RH WIND       PRES   REMARKS
LEXINGTON      LGT RAIN  60  57  89 S15G23    30.00F FOG
COVINGTON      RAIN      58  57  97 S7        29.98F FOG
FRANKFORT      CLOUDY    63  56  78 SW17G23   29.98S
$$

KYZ054-064>069-076>088-106>120-261700-
SOUTHEAST KENTUCKY

CITY           SKY/WX    TMP DP  RH WIND       PRES   REMARKS
JACKSON        CLOUDY    63  54  72 VRB7      30.05F
LONDON         CLOUDY    64  53  67 S13G23    30.04S
SOMERSET       NOT AVBL
MIDDLESBORO    LGT RAIN  61  57  87 S7        30.09S
MONTICELLO     CLOUDY    60  57  89 W15       30.06R
$$




USA.gov is the U.S. government's official web portal to all federal, state and local government web resources and services.